COSMOS 1520 (GLONASS)

Satellite information

Favourite Embed

Satellite Type and Status

PAYLOADIN ORBIT

Key statistics

Satellite COSMOS 1520 (GLONASS) at a glance.

Uptime

15277

Days in orbit

Revolutions

≈ 2.1

Per day

Orbit

MEO

Medium Earth Orbit

Inclination

66.5

Latest

Satellite identification and parameters

Extended collection of information and parameters for COSMOS 1520 (GLONASS).

Object identification

Identified? True

Debris? False

Object name: COSMOS 1520 (GLONASS)

International designator: 1983-127B

Object number (NORAD): 14591

Object ID (CCSDS): 14591

Country: COMMONWEALTH OF INDEPENDENT STATES (CIS)

Current information (Y/N): Y

RCS size: LARGE

Orbital parameters

Period: 675.73 minutes

Inclination: 66.5098 deg

SMA: 25507.954 km

Apoapsis: 19189.993 km

Periapsis: 19069.645 km

RAAN: 336.8113 deg

Eccentricy: 0.00235903

Argument of periapsis: 173.6105 deg

Mean anomaly: 182.922 deg

Mean motion: 2.13102879 rev/day

Mean motion (dot): -0.00000055 rev/day2

B* drag term: 0.0 1/REarth

Two-line elements (TLE)

Creation date: Oct. 21, 2025, 6:24 p.m.

Reference frame: TEME

Reference center: EARTH

Epoch: Oct. 21, 2025, 12:45 p.m. UTC

TLE line 0: 0 COSMOS 1520 (GLONASS)

TLE line 1: 1 14591U 83127B 25294.53181714 -.00000055 00000-0 00000-0 0 9994

TLE line 2: 2 14591 66.5098 336.8113 0023590 173.6105 182.9220 2.13102879265867

Live tracking on map

Real-time ground track for satellite COSMOS 1520 (GLONASS).

In-orbit conjunctions

A list of the most updated potential collisions computed for object COSMOS 1520 (GLONASS).

Target Orbit TCA Probability of collision Miss distance Type
COSMOS 1652 (GLONASS) MEO 2025-01-12 04:41:44 TBA 3756.0 (m) PAYLOAD

Associated space launch

GLONASS navigation satellites

COSMOS 1520 (GLONASS) was lifted into orbit during the mission ‘Proton | Uragan 4 & 5’, on board a Proton space rocket.

The launch took place on Dec. 29, 1983, 12:52 a.m. from 200/40.

For more information about the launch, click the button.

Launch to space Proton | Uragan 4 & 5
Proton | Uragan 4 & 5

Agency: N/A

Status: Launch Successful

Launch date: Dec. 29, 1983, 12:52 a.m. UTC

Rocket: Proton

Launch pad: 200/40

Location: Baikonur Cosmodrome, Republic of Kazakhstan

...

Latest news about this satellite

There are no fresh news available about this satellite. Check back as we update our databases every day.


Newsletter sign-up

Weekly statistics, charts and insights to help you stay on top of the space industry.